Weather Roundup
Issued by NWS

Home | Current Version | Previous Version | Graphics & Text | Print | Product List | Glossary Off
Versions: 1 2 3 4 5 6 7 8 9 10 11 12 13 14 15 16 17 18 19 20 21 22 23 24 25 26 27 28 29 30 31 32 33 34 35 36 37 38 39 40 41 42 43 44 45 46 47 48 49 50

000
NZUS93 KARX 041610
HRRWXR

CURRENT HOURLY OBSERVATIONS ACROSS
MUCH OF THE UPPER MISSISSIPPI VALLEY
NATIONAL WEATHER SERVICE LA CROSSE WI
1100 AM CDT FRI SEP 04 2015


...SOUTHEAST MINNESOTA...


CITY           SKY/WX    TMP DP  RH WIND       PRES   REMARKS
ROCHESTER      SUNNY     79  72  79 SE10      29.99F
ROCHESTER/MAYO FAIR      78  73  85 SE10      29.98F
WINONA         SUNNY     79  68  69 SE7       29.99S
AUSTIN         SUNNY     81  72  74 SE6       29.96F
ALBERT LEA     SUNNY     81  72  74 SE9       29.95F
DODGE CENTER   SUNNY     79  72  78 SE7       29.97F
PRESTON        SUNNY     78  69  74 SE8       30.01S
OWATONNA       SUNNY     82  70  65 SE12      29.94F
FARIBAULT      SUNNY     82  72  69 SE10      29.93F
$$

...ELSEWHERE IN MINNESOTA...


CITY           SKY/WX    TMP DP  RH WIND       PRES   REMARKS
MINNEAPOLIS    SUNNY     78  70  76 SE12      29.93F
INTNL FALLS    SUNNY     76  66  71 SE12      29.94S
DULUTH         MOSUNNY   70  63  78 SE12      29.99F
RED WING       SUNNY     79  68  69 SE12      29.95S
REDWOOD FALLS  MOSUNNY   84  71  65 S8        29.86R
MANKATO        SUNNY     81  72  74 SE13      29.91S
WORTHINGTON    PTSUNNY   79  68  69 S10       29.90R
FAIRMONT       SUNNY     81  66  61 SE15      29.90S
$$

...SOUTHWEST WISCONSIN...


CITY           SKY/WX    TMP DP  RH WIND       PRES   REMARKS
LA CROSSE      SUNNY     81  69  67 S8        29.99F
PRAIRIE DU CHI SUNNY     80  68  67 SE3       30.01S
BOSCOBEL       SUNNY     82  69  64 VRB5      30.02R
LONE ROCK      MOSUNNY   79  69  71 MISG      30.03S
PLATTEVILLE    SUNNY     79  72  80 SE3       30.03S
FORT MC COY    MOSUNNY   78  64  62 SE6       30.03F
CAMP DOUGLAS   PTSUNNY   73  73 100 SE7       30.04S
VIROQUA          N/A     78  70  74 SE7       30.04F
WIS DELLS      CLOUDY    71  64  79 E7        30.05S HAZE
$$

...ELSEWHERE IN WISCONSIN...


CITY           SKY/WX    TMP DP  RH WIND       PRES   REMARKS
MILWAUKEE      MOSUNNY   73  65  75 NE10      30.05R
MADISON        PTSUNNY   75  66  73 E5        30.04S
GREEN BAY      MOSUNNY   71  65  81 NE5       30.04F
EAU CLAIRE     PTSUNNY   77  66  68 E9        30.00F
BLACK RVR FLS  PTSUNNY   78  64  63 E7        30.02F
MEDFORD        MOSUNNY   71  65  82 SE10      30.07S
WAUSAU         PTSUNNY   71  64  78 SE9       30.06R
WIS RAPIDS     CLOUDY    68  63  84 SE8       30.07S
MARSHFIELD     CLOUDY    68  62  81 SE9       30.07S
RICE LAKE      PTSUNNY   74  65  73 SE13      30.02F
$$

...NORTHEAST IOWA...


CITY           SKY/WX    TMP DP  RH WIND       PRES   REMARKS
DECORAH        SUNNY     77  72  83 SE6       30.01S
MASON CITY     SUNNY     82  73  74 S10       29.97F
CHARLES CITY   SUNNY     81  73  78 S8        29.99S
OELWEIN        SUNNY     82  72  69 VRB5G12   30.01F
$$

...ELSEWHERE IN IOWA...


CITY           SKY/WX    TMP DP  RH WIND       PRES   REMARKS
DES MOINES     PTSUNNY   85  70  60 S13       29.96F
IOWA CITY      SUNNY     84  71  65 SW9       30.02S
FORT DODGE     MOSUNNY   82  70  65 S12       29.94F
$$

...NORTHERN ILLINOIS...


CITY           SKY/WX    TMP DP  RH WIND       PRES   REMARKS
CHICAGO-OHARE  MOSUNNY   76  66  71 VRB3      30.03S
CHICAGO-MIDWAY MOSUNNY   81  67  62 CALM      30.03S
MOLINE         MOSUNNY   87  70  56 NW3       30.01S HX  92
ROCKFORD       MOSUNNY   80  69  69 SE5       30.05S
PEORIA         SUNNY     89  70  53 VRB3      30.03S HX  94
$$

NOTE: "FAIR" INDICATES FEW OR NO CLOUDS BELOW 12,000 FEET WITH NO
SIGNIFICANT WEATHER AND/OR OBSTRUCTIONS TO VISIBILITY. WIND
SPEEDS ARE IN MILES-PER-HOUR.



USA.gov is the U.S. government's official web portal to all federal, state and local government web resources and services.